Naples, Italy

2:20 PM CEST on July 23, 2017 (GMT +0200)
Capodichino Mil

Weather History for LIRN - July, 2014

Change the Weather History Date:

Tuesday, July 8, 2014

  Actual Average Record
Temperature  
Mean Temperature 78 °F -  
Max Temperature 83 °F 85 °F 95 °F (2002)
Min Temperature 71 °F 64 °F 62 °F (2007)
Cooling Degree Days 13    
Growing Degree Days 28 (Base 50)    
Moisture  
Dew Point 63 °F    
Average Humidity 60    
Maximum Humidity 83    
Minimum Humidity 41    
Precipitation  
Precipitation 0.00 in 0.04 in - ()
Sea Level Pressure  
Sea Level Pressure 29.91 in    
Wind  
Wind Speed 7 mph ()    
Max Wind Speed 21 mph    
Max Gust Speed 30 mph    
Visibility 7.0 miles    
Events      
Averages and records for this station are not official NWS values.
T = Trace of Precipitation, MM = Missing Value Source: Averaged Metar Reports

Daily Weather History Graph

Daily Weather History Graph

Search for Another Location

Airport or City:

Trip Planner

Search our weather history database for the weather conditions in past years. The results will help you decide how hot, cold, wet, or windy it might be!

Date:

Astronomy

Jul. 08, 2014 Rise Set
Actual Time 5:38 AM CEST 8:36 PM CEST
Civil Twilight 5:05 AM CEST 9:09 PM CEST
Nautical Twilight 4:23 AM CEST 9:51 PM CEST
Astronomical Twilight 3:35 AM CEST 10:39 PM CEST
Moon 4:24 PM CEST (7/8) 2:00 AM CEST (7/8)
Length of Visible Light 16h 03m
Length of Day
14h 57m
Waxing Gibbous, 79% of the Moon is Illuminated
Jul 8
Waxing Gibbous
Jul 12
Full
Jul 19
Last Quarter
Jul 27
New
Aug 4
First Quarter

Hourly Weather History & Observations

Time (CEST) Temp. Heat Index Dew Point Humidity Pressure Visibility Wind Dir Wind Speed Gust Speed Precip Events Conditions
12:20 AM 77.0 °F - 64.4 °F 65% 29.95 in - South 2.3 mph - N/A   Clear
12:50 AM 77.0 °F - 64.4 °F 65% 29.92 in - Calm Calm - N/A   Clear
1:20 AM 77.0 °F - 64.4 °F 65% 29.92 in - Calm Calm - N/A   Clear
1:50 AM 75.2 °F - 64.4 °F 69% 29.89 in - Variable 2.3 mph - N/A   Clear
2:00 AM 75 °F - 65 °F 63% 29.89 in 12 mi NW 3.5 mph - -  
2:20 AM 75.2 °F - 64.4 °F 69% 29.89 in - Variable 2.3 mph - N/A   Clear
2:50 AM 77.0 °F - 64.4 °F 65% 29.92 in - WNW 3.5 mph - N/A   Clear
3:20 AM 77.0 °F - 64.4 °F 65% 29.92 in - Variable 2.3 mph - N/A   Clear
3:50 AM 77.0 °F - 66.2 °F 69% 29.95 in - WNW 12.7 mph - N/A   Clear
4:20 AM 77.0 °F - 66.2 °F 69% 29.92 in - West 6.9 mph - N/A   Clear
4:50 AM 77.0 °F - 62.6 °F 61% 29.92 in - SW 4.6 mph - N/A   Clear
5:00 AM 76 °F - 63 °F 56% 29.93 in 12 mi SW 4.6 mph - -  
5:20 AM 77.0 °F - 68.0 °F 74% 29.92 in - SSW 5.8 mph - N/A   Clear
5:50 AM 75.2 °F - 68.0 °F 78% 29.92 in - Variable 1.2 mph - N/A   Clear
6:20 AM 75.2 °F - 69.8 °F 83% 29.89 in - Variable 2.3 mph - N/A   Clear
6:50 AM 77.0 °F - 69.8 °F 78% 29.89 in 6.2 mi SSW 3.5 mph - N/A   Scattered Clouds
7:20 AM 77.0 °F - 69.8 °F 78% 29.89 in 6.2 mi SSE 4.6 mph - N/A   Scattered Clouds
7:50 AM 78.8 °F - 68.0 °F 69% 29.86 in 6.2 mi South 3.5 mph - N/A   Scattered Clouds
8:00 AM 79 °F - 67 °F 57% 29.88 in 12 mi South 4.6 mph - -   Mostly Cloudy
8:20 AM 80.6 °F 82.7 °F 66.2 °F 61% 29.89 in 6.2 mi SSW 5.8 mph - N/A   Partly Cloudy
8:50 AM 80.6 °F 82.7 °F 66.2 °F 61% 29.89 in 6.2 mi SSW 6.9 mph - N/A   Scattered Clouds
9:20 AM 80.6 °F 83.2 °F 68.0 °F 65% 29.89 in 6.2 mi South 9.2 mph - N/A   Mostly Cloudy
9:50 AM 80.6 °F 84.6 °F 71.6 °F 74% 29.89 in 6.2 mi SSW 11.5 mph - N/A   Mostly Cloudy
10:20 AM 80.6 °F 83.2 °F 68.0 °F 65% 29.89 in 6.2 mi SSW 11.5 mph 23.0 mph N/A   Mostly Cloudy
10:50 AM 80.6 °F 83.9 °F 69.8 °F 70% 29.89 in 6.2 mi SSW 11.5 mph - N/A   Mostly Cloudy
11:00 AM 80 °F - 68 °F 58% 29.89 in 12 mi SSW 10.4 mph - -   Mostly Cloudy
11:20 AM 80.6 °F 83.2 °F 68.0 °F 65% 29.89 in 6.2 mi SSW 11.5 mph - N/A   Mostly Cloudy
11:50 AM - - - N/A% - - South 11.5 mph - N/A   Unknown
12:20 PM 82.4 °F 84.6 °F 66.2 °F 58% 29.89 in 6.2 mi WSW 12.7 mph - N/A   Mostly Cloudy
12:50 PM 82.4 °F 85.4 °F 68.0 °F 62% 29.92 in 6.2 mi West 18.4 mph - N/A   Mostly Cloudy
1:20 PM 82.4 °F 85.4 °F 68.0 °F 62% 29.92 in 6.2 mi West 17.3 mph - N/A   Mostly Cloudy
1:50 PM 80.6 °F 82.3 °F 64.4 °F 58% 29.92 in 6.2 mi West 18.4 mph - N/A   Scattered Clouds
2:00 PM 82 °F - 63 °F 43% 29.91 in 12 mi West 15.0 mph - -   Mostly Cloudy
2:20 PM 80.6 °F 82.3 °F 64.4 °F 58% 29.92 in 6.2 mi West 17.3 mph 29.9 mph N/A   Scattered Clouds
2:50 PM 80.6 °F 82.3 °F 64.4 °F 58% 29.92 in 6.2 mi West 19.6 mph - N/A   Scattered Clouds
3:20 PM 80.6 °F 82.3 °F 64.4 °F 58% 29.92 in 6.2 mi West 17.3 mph - N/A   Scattered Clouds
3:50 PM 80.6 °F 81.5 °F 60.8 °F 51% 29.89 in 6.2 mi West 17.3 mph - N/A   Partly Cloudy
4:20 PM 78.8 °F - 62.6 °F 57% 29.92 in 6.2 mi West 18.4 mph - N/A   Partly Cloudy
4:50 PM 78.8 °F - 62.6 °F 57% 29.92 in 6.2 mi West 18.4 mph - N/A   Scattered Clouds
5:00 PM 78 °F - 62 °F 48% 29.91 in 6 mi West 20.7 mph - -   Partly Cloudy
5:20 PM 77.0 °F - 60.8 °F 57% 29.92 in 6.2 mi West 20.7 mph - N/A   Scattered Clouds
5:50 PM 77.0 °F - 59.0 °F 54% 29.89 in 6.2 mi West 19.6 mph - N/A   Scattered Clouds
6:20 PM 77.0 °F - 57.2 °F 50% 29.92 in 6.2 mi West 17.3 mph - N/A   Partly Cloudy
6:50 PM 77.0 °F - 55.4 °F 47% 29.89 in - West 18.4 mph - N/A   Clear
7:20 PM 75.2 °F - 55.4 °F 50% 29.89 in - West 13.8 mph - N/A   Clear
7:50 PM 75.2 °F - 57.2 °F 53% 29.92 in - West 13.8 mph - N/A   Clear
8:00 PM 74 °F - 55 °F 41% 29.91 in 6 mi WSW 16.1 mph - -  
8:20 PM 75.2 °F - 55.4 °F 50% 29.92 in - WSW 10.4 mph - N/A   Clear
8:50 PM 73.4 °F - 55.4 °F 53% 29.92 in - WSW 10.4 mph - N/A   Clear
9:20 PM 73.4 °F - 53.6 °F 50% 29.92 in - WSW 9.2 mph - N/A   Clear
9:50 PM 73.4 °F - 53.6 °F 50% 29.92 in - West 12.7 mph - N/A   Clear
10:20 PM 73.4 °F - 55.4 °F 53% 29.92 in - West 10.4 mph - N/A   Clear
10:50 PM 73.4 °F - 55.4 °F 53% 29.92 in 6.2 mi West 11.5 mph - N/A   Partly Cloudy
11:00 PM 73 °F - 56 °F 45% 29.93 in 6 mi West 10.4 mph - -   Scattered Clouds
11:20 PM 73.4 °F - 55.4 °F 53% 29.92 in 6.2 mi West 9.2 mph - N/A   Partly Cloudy
11:50 PM 71.6 °F - 57.2 °F 60% 29.92 in 6.2 mi West 8.1 mph - N/A   Partly Cloudy